Tracking 20719 objects as of 24-May-2020
HD Live streaming from Space Station
objects crossing your sky now

LEMUR 2 FURIAUS

Track LEMUR 2 FURIAUS now!
10-day predictions
LEMUR 2 FURIAUS is classified as:


NORAD ID: 42840
Int'l Code: 2017-042R
Perigee: 589.3 km
Apogee: 608.0 km
Inclination: 97.5 °
Period: 96.5 minutes
Semi major axis: 6969 km
RCS: Unknown
Launch date: July 14, 2017
Source: United States (US)
Launch site: TYURATAM MISSILE AND SPACE COMPLEX (TTMTR)
aabbcc
Your satellite tracking list
Your tracking list is empty




NASA's NSSDC Master Catalog

Two Line Element Set (TLE):
1 42840U 17042R   20145.16159424 +.00000404 +00000-0 +44966-4 0  9997
2 42840 097.5285 029.5869 0013436 007.8278 352.3149 14.92071808155754
Source of the keplerian elements: AFSPC